Back to catalog

SL-16 DEB

AliveLEO
NORAD 22343·DEBRIS·🇷🇺 Russia

Launched Dec 25, 1992 from Baikonur Cosmodrome

Loading…

Next Passes (next 24 hours)

TLE

FreshSource: Space-Track

Epoch: Sep 14, 2026, 13:27 UTC

1 22343U 92093AG  26257.56066950  .00000103  00000-0  78464-4 0  9993
2 22343  70.9468 289.2400 0092878  45.8703 115.7477 14.12141471728821

Track SL-16 DEB in real time with AllMySat

Download on the App Store